Simultaneous Nadir Overpasses (SNOs) Predictions

Prediction of SNOs over PacNW region [( 10.00, 139.50) to ( 22.70, 165.60)] between AQUA and NPP Satellites:

Table of predicted SNOs over PacNW region for the next 30.0 days since TLE Epoch: 7/22/2016
Index Date (AQUA) Time (AQUA) AQUA Lat,Lon Date (NPP) Time (NPP) NPP Lat,Lon Distance(km) Time Diff (sec)
1 07/24/2016 15:09:33 22.62, 159.86 07/24/2016 15:11:49 23.17, 157.25 274.08 136
2 07/27/2016 03:31:22 22.53, 147.57 07/27/2016 03:27:55 22.19, 145.91 174.67 207
3 08/01/2016 15:59:00 22.62, 147.48 08/01/2016 16:02:28 23.29, 144.60 304.51 208
4 08/04/2016 02:41:58 22.69, 159.88 08/04/2016 02:38:28 27.00, 157.37 542.55 210
5 08/09/2016 15:09:34 22.62, 159.84 08/09/2016 15:11:42 23.16, 157.27 270.13 128
6 08/12/2016 03:31:23 22.66, 147.52 08/12/2016 03:27:54 22.65, 145.82 174.95 209
7 08/17/2016 15:58:59 22.63, 147.47 08/17/2016 16:02:20 23.29, 144.62 301.00 201




NCC Satellite Simultaneous Nadir Overpasses (SNOs) Prediction Service
